Location: Casilda
(33.0440°S, 61.1680°W)
Time: 16:28:35
(UTC-03:00)

ISS - Pass Details

Date: 24 September 2020
Orbit: 419 x 421 km, 51.6° (Epoch: 27 September)

Event Time Altitude Azimuth Distance (km) Brightness Sun altitude
Exits shadow 04:58:59 39° 74° (ENE) 654 -2.5 -23.9°
Drops below altitude 10° 05:01:45 10° 120° (ESE) 1,524 0.1 -23.3°
Sets 05:03:56 0° 127° (SE) 2,397 1.3 -22.9°
